Flag Weather past 2 weeks in Yuzhno-Sakhalinsk, Russia

Now
18 °F

Passing clouds.


Feels Like: 18 °F
Forecast: 21 / 42 °F
Wind: No wind

Location: Yuzhno Airport-Sakhalinsk

Current Time: Nov 27, 2014 at 9:01:55 AM

Latest Report: Nov 27, 2014 at 8:00 AM


Visibility: N/A

Pressure: 30.12 "Hg

Humidity: 93%

Dew point: 16 °F

Location of Yuzhno-SakhalinskLocation

Historic Weather in Yuzhno-Sakhalinsk — Graph

°F

Yuzhno-Sakhalinsk temperature yesterday

Maximum temperature yesterday: 43 °F (at 1:30 PM)
Minimum temperature yesterday: 7 °F (at 1:00 AM)
Average temperature yesterday: 24 °F

Past Weeks' High & Low Weather Summary

 TemperatureHumidityPressure
High50 °F (Nov 12, 12:00 PM)100% (Nov 12, 8:00 AM)30.24 "Hg (Nov 12, 8:00 AM)
Low7 °F (Nov 26, 1:00 AM)44% (Nov 18, 1:30 PM)29.09 "Hg (Nov 13, 8:00 PM)
Average29 °F80%29.95 "Hg
* Reported Nov 12 8:00 AM — Nov 27 8:00 AM, Yuzhno-Sakhalinsk, Weather by CustomWeather, © 2014

Note: Actual official high and low records may vary slightly from our data, if they occured in-between our weather recording intervals... More about our weather records

Advertising

Yuzhno-Sakhalinsk weather history for previous 24 hours

 ConditionsComfort  
Time TempWeatherWind HumidityBarometerVisibility
8:00 AM
Nov 27
18 °FPassing clouds.No wind93%30.12 "HgN/A
7:30 AM19 °FPassing clouds.No wind100%30.12 "HgN/A
7:00 AM21 °FPassing clouds.No wind100%30.12 "HgN/A
6:30 AM23 °FPassing clouds.No wind100%30.12 "HgN/A
6:00 AM25 °FPassing clouds.No wind93%30.12 "HgN/A
5:00 AM14 °FClear.1 mph92%30.12 "HgN/A
4:00 AM14 °FClear.No wind92%30.12 "HgN/A
3:00 AM16 °FClear.1 mph100%30.15 "HgN/A
2:00 AM18 °FClear.No wind93%30.15 "HgN/A
1:00 AM18 °FClear.1 mph93%30.15 "HgN/A
12:00 AM16 °FClear.No wind100%30.18 "HgN/A
11:00 PM
Nov 26
19 °FClear.No wind93%30.18 "HgN/A
10:00 PM21 °FClear.6 mph93%30.18 "HgN/A
9:30 PM21 °FClear.6 mph93%30.18 "HgN/A
9:00 PM23 °FClear.3 mph93%30.18 "HgN/A
8:30 PM23 °FClear.3 mph93%30.18 "HgN/A
8:00 PM23 °FClear.1 mph93%30.18 "HgN/A
7:30 PM23 °FClear.3 mph93%30.18 "HgN/A
7:00 PM27 °FClear.No wind86%30.18 "HgN/A
6:30 PM27 °FClear.No wind86%30.18 "HgN/A
6:00 PM28 °FClear.No wind80%30.18 "HgN/A
5:30 PM30 °FSunny.3 mph75%30.18 "HgN/A
5:00 PM36 °FSunny.6 mph70%30.18 "HgN/A
4:30 PM39 °FSunny.6 mph61%30.18 "HgN/A
4:00 PM39 °FSunny.6 mph65%30.18 "HgN/A
3:30 PM41 °FSunny.8 mph61%30.15 "HgN/A
3:00 PM41 °FSunny.8 mph61%30.15 "HgN/A
2:30 PM41 °FSunny.6 mph61%30.15 "HgN/A
2:00 PM41 °FSunny.6 mph61%30.18 "HgN/A
1:30 PM43 °FSunny.6 mph57%30.18 "HgN/A
1:00 PM41 °FSunny.3 mph66%30.18 "HgN/A
12:30 PM39 °FSunny.3 mph65%30.18 "HgN/A
12:00 PM39 °FSunny.3 mph65%30.21 "HgN/A
11:30 AM36 °FSunny.3 mph75%30.21 "HgN/A
11:00 AM32 °FClear.1 mph87%30.21 "HgN/A
10:30 AM30 °FClear.No wind80%30.24 "HgN/A
10:00 AM25 °FClear.No wind86%30.24 "HgN/A
9:30 AM19 °FClear.No wind86%30.24 "HgN/A
9:00 AM14 °FSunny.No wind92%30.24 "HgN/A
Weather by CustomWeather, © 2014

See weather overviewHow to use our weather pages